EN

Hourly Weather Aalsmeer

Today, 1 December, Tuesday

Time Temperature Precipitation Wind Pressure Humidity
00:00 +7°C° 0.7 mm 6 mps 758 mmHg 82%
01:00 +7°C° 0.2 mm 6 mps 758 mmHg 83%
02:00 +5°C° 0.2 mm 6 mps 758 mmHg 84%
03:00 +5°C° 0.2 mm 6 mps 758 mmHg 85%
04:00 +5°C° 1 mm 7 mps 759 mmHg 86%
05:00 +6°C° 1 mm 8 mps 759 mmHg 88%
06:00 +6°C° 1 mm 9 mps 759 mmHg 89%
07:00 +6°C° 0.8 mm 9 mps 760 mmHg 84%
08:00 +7°C° 0.8 mm 9 mps 761 mmHg 79%
09:00 +7°C° 0.8 mm 9 mps 761 mmHg 75%
10:00 +7°C° 0 mm 9 mps 762 mmHg 73%
11:00 +7°C° 0 mm 8 mps 762 mmHg 72%
12:00 +7°C° 0 mm 8 mps 762 mmHg 71%
13:00 +7°C° 0 mm 8 mps 762 mmHg 72%
14:00 +8°C° 0 mm 7 mps 763 mmHg 72%
15:00 +8°C° 0 mm 7 mps 763 mmHg 73%
16:00 +7°C° 0 mm 6 mps 763 mmHg 77%
17:00 +7°C° 0 mm 6 mps 763 mmHg 81%
18:00 +7°C° 0 mm 5 mps 763 mmHg 85%
19:00 +7°C° 0 mm 5 mps 764 mmHg 86%
20:00 +7°C° 0 mm 5 mps 764 mmHg 86%
21:00 +7°C° 0 mm 5 mps 764 mmHg 86%
22:00 +6°C° 0 mm 5 mps 765 mmHg 88%
23:00 +6°C° 0 mm 4 mps 765 mmHg 89%

Tomorrow, 2 December, Wednesday

Time Temperature Precipitation Wind Pressure Humidity
00:00 +5°C° 0 mm 4 mps 765 mmHg 91%
01:00 +5°C° 0 mm 3 mps 765 mmHg 92%
02:00 +5°C° 0 mm 2 mps 765 mmHg 93%
03:00 +5°C° 0 mm 2 mps 765 mmHg 94%
04:00 +5°C° 0 mm 1 mps 764 mmHg 94%
05:00 +5°C° 0 mm 1 mps 764 mmHg 94%
06:00 +5°C° 0 mm 1 mps 764 mmHg 94%
07:00 +5°C° 0 mm 1 mps 764 mmHg 93%
08:00 +6°C° 0 mm 1 mps 764 mmHg 92%
09:00 +6°C° 0 mm 1 mps 764 mmHg 91%
10:00 +7°C° 0 mm 1 mps 763 mmHg 88%
11:00 +7°C° 0 mm 1 mps 763 mmHg 85%
12:00 +8°C° 0 mm 1 mps 762 mmHg 83%
13:00 +8°C° 0 mm 1 mps 762 mmHg 84%
14:00 +8°C° 0 mm 1 mps 761 mmHg 85%
15:00 +6°C° 0 mm 2 mps 761 mmHg 86%
16:00 +6°C° 0 mm 2 mps 761 mmHg 86%
17:00 +6°C° 0 mm 2 mps 760 mmHg 87%
18:00 +6°C° 0 mm 2 mps 760 mmHg 88%
19:00 +5°C° 0 mm 3 mps 759 mmHg 87%
20:00 +5°C° 0 mm 3 mps 759 mmHg 87%
21:00 +5°C° 0 mm 3 mps 759 mmHg 87%
22:00 +5°C° 0.2 mm 4 mps 758 mmHg 86%
23:00 +5°C° 0.2 mm 4 mps 758 mmHg 85%

Day after tomorrow, 3 December, Thursday

Time Temperature Precipitation Wind Pressure Humidity
00:00 +5°C° 0.2 mm 4 mps 757 mmHg 84%
01:00 +5°C° 0.1 mm 4 mps 756 mmHg 85%
02:00 +5°C° 0.1 mm 4 mps 756 mmHg 86%
03:00 +5°C° 0.1 mm 4 mps 755 mmHg 86%
04:00 +5°C° 0.3 mm 4 mps 754 mmHg 87%
05:00 +5°C° 0.3 mm 4 mps 754 mmHg 87%
06:00 +5°C° 0.3 mm 4 mps 753 mmHg 87%
07:00 +5°C° 0.4 mm 4 mps 752 mmHg 88%
08:00 +5°C° 0.4 mm 4 mps 752 mmHg 88%
09:00 +5°C° 0.4 mm 3 mps 751 mmHg 88%
10:00 +5°C° 0.1 mm 3 mps 751 mmHg 88%
11:00 +5°C° 0.1 mm 3 mps 750 mmHg 88%
12:00 +5°C° 0.1 mm 3 mps 750 mmHg 87%
13:00 +5°C° 0.2 mm 3 mps 749 mmHg 88%
14:00 +5°C° 0.2 mm 3 mps 748 mmHg 89%
15:00 +5°C° 0.2 mm 4 mps 747 mmHg 89%
16:00 +5°C° 0.1 mm 4 mps 747 mmHg 89%
17:00 +4°C° 0.1 mm 4 mps 746 mmHg 89%
18:00 +4°C° 0.1 mm 4 mps 746 mmHg 89%
19:00 +3°C° 0.1 mm 5 mps 745 mmHg 89%
20:00 +3°C° 0.1 mm 5 mps 744 mmHg 90%
21:00 +3°C° 0.1 mm 5 mps 744 mmHg 90%
22:00 +3°C° 0.1 mm 5 mps 743 mmHg 90%
23:00 +3°C° 0.1 mm 5 mps 742 mmHg 90%

4 December, Friday

Time Temperature Precipitation Wind Pressure Humidity
00:00 +4°C° 0.1 mm 4 mps 742 mmHg 90%
01:00 +3°C° 0.1 mm 5 mps 741 mmHg 90%
02:00 +3°C° 0.1 mm 5 mps 740 mmHg 90%
03:00 +3°C° 0.1 mm 5 mps 740 mmHg 89%
04:00 +3°C° 0 mm 5 mps 739 mmHg 89%
05:00 +3°C° 0 mm 5 mps 739 mmHg 88%
06:00 +3°C° 0 mm 5 mps 738 mmHg 87%
07:00 +3°C° 0.2 mm 5 mps 738 mmHg 87%
08:00 +3°C° 0.2 mm 6 mps 738 mmHg 87%
09:00 +3°C° 0.2 mm 6 mps 738 mmHg 87%
10:00 +3°C° 0.4 mm 6 mps 738 mmHg 86%
11:00 +3°C° 0.4 mm 6 mps 738 mmHg 86%
12:00 +4°C° 0.4 mm 6 mps 738 mmHg 86%
13:00 +4°C° 0 mm 6 mps 738 mmHg 85%
14:00 +4°C° 0 mm 6 mps 737 mmHg 84%
15:00 +5°C° 0 mm 5 mps 737 mmHg 83%
16:00 +5°C° 0 mm 5 mps 737 mmHg 83%
17:00 +3°C° 0 mm 6 mps 737 mmHg 82%
18:00 +3°C° 0 mm 6 mps 737 mmHg 82%
19:00 +3°C° 0 mm 6 mps 737 mmHg 83%
20:00 +3°C° 0 mm 6 mps 737 mmHg 83%
21:00 +3°C° 0 mm 6 mps 737 mmHg 83%
22:00 +3°C° 0 mm 6 mps 737 mmHg 83%
23:00 +2°C° 0 mm 6 mps 737 mmHg 83%

5 December, Saturday

Time Temperature Precipitation Wind Pressure Humidity
00:00 +2°C° 0 mm 7 mps 737 mmHg 83%
01:00 +3°C° 0.2 mm 7 mps 738 mmHg 84%
02:00 +3°C° 0.2 mm 7 mps 738 mmHg 85%
03:00 +3°C° 0.2 mm 7 mps 738 mmHg 86%
04:00 +2°C° 0 mm 7 mps 739 mmHg 84%
05:00 0°C° 0 mm 7 mps 739 mmHg 83%
06:00 +1°C° 0 mm 6 mps 740 mmHg 81%
07:00 +1°C° 0 mm 6 mps 741 mmHg 80%
08:00 -1°C° 0 mm 6 mps 741 mmHg 79%
09:00 -1°C° 0 mm 6 mps 742 mmHg 79%
10:00 +1°C° 0 mm 5 mps 742 mmHg 76%
11:00 +1°C° 0 mm 5 mps 743 mmHg 74%
12:00 +3°C° 0 mm 4 mps 743 mmHg 71%
13:00 +3°C° 0 mm 4 mps 743 mmHg 73%
14:00 +1°C° 0 mm 4 mps 743 mmHg 75%
15:00 +1°C° 0 mm 4 mps 744 mmHg 76%
16:00 +1°C° 0 mm 4 mps 744 mmHg 78%
17:00 +1°C° 0 mm 4 mps 744 mmHg 79%
18:00 +1°C° 0 mm 3 mps 745 mmHg 81%
19:00 +2°C° 0.1 mm 3 mps 745 mmHg 84%
20:00 +2°C° 0.1 mm 3 mps 745 mmHg 88%
21:00 +2°C° 0.1 mm 3 mps 745 mmHg 91%
22:00 +2°C° 0.6 mm 3 mps 744 mmHg 93%
23:00 +2°C° 0.6 mm 3 mps 744 mmHg 94%

6 December, Sunday

Time Temperature Precipitation Wind Pressure Humidity
00:00 +4°C° 0.6 mm 2 mps 744 mmHg 95%
01:00 +3°C° 1.4 mm 3 mps 743 mmHg 95%
02:00 +3°C° 1.4 mm 3 mps 742 mmHg 96%
03:00 +3°C° 1.4 mm 4 mps 742 mmHg 96%
04:00 +4°C° 0.9 mm 4 mps 741 mmHg 96%
05:00 +4°C° 0.9 mm 4 mps 741 mmHg 96%
06:00 +4°C° 0.9 mm 4 mps 740 mmHg 96%
07:00 +3°C° 1.6 mm 5 mps 740 mmHg 95%
08:00 +3°C° 1.6 mm 5 mps 739 mmHg 95%
09:00 +3°C° 1.6 mm 6 mps 739 mmHg 95%
10:00 +3°C° 0.8 mm 6 mps 739 mmHg 94%
11:00 +3°C° 0.8 mm 6 mps 739 mmHg 93%
12:00 +3°C° 0.8 mm 7 mps 738 mmHg 92%
13:00 +3°C° 0.8 mm 7 mps 738 mmHg 91%
14:00 +3°C° 0.8 mm 7 mps 738 mmHg 91%
15:00 +3°C° 0.8 mm 7 mps 738 mmHg 90%
16:00 +3°C° 0.5 mm 6 mps 738 mmHg 90%
17:00 +3°C° 0.5 mm 6 mps 738 mmHg 91%
18:00 +3°C° 0.5 mm 5 mps 738 mmHg 91%
19:00 +3°C° 0.3 mm 5 mps 739 mmHg 90%
20:00 +5°C° 0.3 mm 5 mps 739 mmHg 89%
21:00 +5°C° 0.3 mm 5 mps 739 mmHg 88%
22:00 +5°C° 0.3 mm 5 mps 739 mmHg 88%
23:00 +5°C° 0.3 mm 5 mps 739 mmHg 89%
Show more

We Need Your Consent

Meteoprog and our Service Providers may store and access personal data such as cookies, device identifiers or other similar technologies on your device and process such data to personalise content and ads, as well as provide social media features and to analyse the traffic.

  • Store and/or access information on your device

    Cookies, device identifiers or other information can be stored or accessed on your device for the purposes indicated above.

  • Personalised ads and content, ad and content measurement, audience insights, and products development

    Ads and content can be personalised based on a profile. More data can be added to better personalise ads and content. Ad and content performance can be measured. Insights about the audience who saw the ads and content can be derived. Such data can be used to develop or improve user’s experience, systems and software.

By clicking ‘I Agree’ you will allow the use of indicated cookies, device identifiers, web beacons or other similar technologies. Your settings can be changed in the browser on your device.

For certain purposes, legitimate interests may be relied on, rather than consent. You can read more about this in our Privacy and Cookie Policy.